Theta_e
310 310 310 310 311 311 312 312 312 312 312 313 315 315 315 314 314 315 317 319 318 319 317 318 318 321 325 325 323 321 335 337 338 342 341 338 341 341 342 344 343 345 341 338 337
309 309 310 310 311 311 312 312 312 312 313 314 316 315 314 314 318 316 320 318 319 316 316 320 322 323 320 321 321 323 338 337 334 338 339 338 340 341 342 342 342 340 338 336 337
309 309 310 310 310 311 311 312 312 312 313 315 317 315 314 316 322 318 320 320 317 317 317 321 322 319 320 318 319 325 336 334 337 337 337 338 340 341 341 343 341 340 339 338 337
308 309 309 310 310 311 312 312 312 312 314 317 317 315 314 317 325 320 321 321 317 317 319 320 319 320 320 321 319 338 341 340 338 337 337 340 340 340 340 340 339 339 339 339 338
308 308 309 310 310 311 312 312 312 313 315 319 316 315 314 318 321 323 322 321 317 317 318 319 320 319 322 320 332 343 341 339 339 338 339 339 339 341 339 337 337 337 337 336 334
308 308 309 309 310 311 312 312 312 313 317 320 316 315 314 320 323 320 323 323 317 317 318 319 320 320 319 324 331 341 340 339 339 338 338 338 337 337 336 337 334 334 334 334 331
308 308 309 309 310 311 312 312 312 314 318 321 317 316 314 318 321 319 322 321 318 318 318 319 319 319 333 338 339 340 342 341 338 338 337 336 339 338 335 337 337 335 335 335 333
308 308 309 309 310 311 312 312 313 316 319 320 319 318 316 318 324 318 318 321 317 316 318 319 319 319 328 338 335 341 342 346 339 336 336 335 343 336 335 335 335 335 335 336 335
307 308 309 309 310 311 312 312 315 317 320 321 321 318 320 322 323 322 315 315 315 316 317 318 319 326 334 337 342 335 347 343 341 335 334 336 341 336 335 335 335 335 335 334 333
307 308 308 309 310 311 312 313 317 317 318 318 320 317 319 323 322 322 317 316 316 317 318 318 318 324 322 332 326 340 332 339 343 337 334 337 340 337 335 335 335 334 334 333 331
307 308 308 309 310 312 313 315 318 318 317 317 317 317 318 320 322 323 318 318 319 318 321 319 322 322 323 326 322 325 327 339 337 335 337 339 340 338 335 335 335 335 334 334 332
307 308 308 309 310 313 315 315 313 315 316 317 316 316 318 318 318 321 319 318 318 320 320 322 322 322 320 319 320 322 326 337 339 336 337 339 340 337 335 335 335 335 334 334 333
307 307 308 309 310 312 316 313 313 318 316 317 316 317 317 318 319 321 320 319 320 320 321 322 322 320 321 319 322 323 328 339 341 337 337 339 340 338 336 336 335 335 335 334 334
307 307 308 309 311 311 315 313 314 319 320 319 322 319 317 318 321 322 321 320 321 321 321 322 321 321 322 323 324 327 324 336 339 339 343 336 342 339 338 338 336 336 335 334 332
309 307 308 308 308 310 312 314 317 318 323 322 320 318 318 321 322 322 321 321 322 321 321 321 322 322 324 325 324 335 330 337 337 339 339 338 339 338 337 340 338 337 334 330 329
311 308 307 308 308 310 310 314 320 320 319 325 318 319 319 320 321 321 321 321 320 321 320 321 320 322 323 327 334 333 334 334 335 338 341 339 341 345 341 339 337 337 329 326 324
314 310 308 307 308 308 310 316 322 323 320 325 324 319 319 320 321 322 323 323 321 322 323 322 322 321 331 334 332 335 337 339 340 340 340 340 341 342 340 338 335 336 326 324 323
316 312 308 308 308 308 311 320 322 319 323 324 323 322 319 320 321 321 323 323 322 322 323 325 326 324 323 331 334 335 331 336 337 340 340 341 343 345 335 330 335 332 325 322 322
316 313 308 308 308 309 316 319 320 320 322 321 323 320 320 320 321 322 323 323 322 323 325 325 329 325 323 325 330 331 330 330 339 338 341 342 341 339 329 329 330 327 323 322 320
316 311 308 312 309 311 317 313 317 319 319 322 324 323 322 321 322 322 323 323 323 322 323 325 330 327 325 327 326 330 329 336 338 345 343 342 343 344 337 332 329 326 324 321 320
316 309 310 317 310 317 317 315 315 316 319 322 324 324 324 323 322 323 324 323 324 323 322 326 330 330 327 329 330 329 331 331 336 338 337 340 341 331 339 334 330 326 323 321 319
314 311 313 311 317 314 318 316 316 319 320 322 323 324 325 326 328 322 324 324 324 322 323 327 332 331 328 327 325 328 331 335 334 339 339 340 337 323 329 331 327 325 322 321 319
311 309 316 316 317 319 317 318 319 320 319 323 324 323 324 324 329 324 325 325 326 324 327 329 332 332 329 328 327 330 327 328 335 337 340 335 334 323 329 327 325 323 321 320 319
311 313 314 316 317 318 320 322 321 321 320 321 323 323 324 328 328 329 327 327 328 329 324 329 330 335 336 333 330 331 331 330 334 334 337 335 333 326 327 326 322 321 320 319 317
311 311 314 319 318 319 320 321 322 323 321 320 324 326 328 330 329 328 326 330 329 326 325 332 333 328 328 327 328 329 330 330 329 333 331 331 333 328 328 326 322 320 320 319 317
311 312 314 316 316 318 318 322 322 322 322 323 325 325 328 330 332 333 328 329 331 328 328 327 329 327 329 329 329 331 330 330 331 330 328 329 330 322 324 322 320 320 319 319 318
314 312 314 315 320 319 320 321 322 323 324 321 322 322 328 331 330 327 329 327 326 330 329 329 332 331 330 327 329 331 331 330 330 328 328 328 328 322 323 321 320 320 320 319 319
Wind_Speed
16 17 19 21 23 23 23 25 26 26 26 23 23 21 15 11 6 2 7 10 13 13 15 15 17 16 8 5 3 3 4 7 7 12 7 9 2 4 5 11 6 4 8 16 13
16 17 19 22 23 24 24 25 27 26 25 22 22 18 13 9 4 6 9 11 13 13 17 18 18 13 2 1 2 2 2 4 4 8 12 9 7 5 5 12 9 14 16 13 5
14 16 18 22 23 24 24 24 26 26 24 22 19 13 10 5 5 5 13 10 13 13 14 15 14 5 1 2 2 3 3 6 9 18 18 14 10 6 9 6 7 13 13 12 14
15 16 17 20 23 24 23 24 26 25 23 20 14 9 7 1 2 8 12 11 12 14 16 16 11 3 1 3 2 4 9 5 11 14 13 9 9 10 8 8 15 17 17 17 16
15 17 17 19 21 23 23 24 25 23 21 14 9 8 4 0 3 5 15 13 14 14 15 12 10 6 3 5 6 7 7 12 17 22 20 18 14 14 15 11 15 20 18 18 17
16 17 18 19 21 23 23 24 24 23 16 10 7 7 3 2 2 5 16 14 14 16 14 8 4 6 6 6 4 10 19 15 13 16 12 18 11 4 8 12 16 19 18 16 17
16 17 18 19 21 23 24 25 23 21 11 8 7 7 4 2 2 7 14 15 15 15 11 6 6 1 8 9 13 16 14 12 9 7 8 11 6 7 11 12 14 14 15 13 14
16 17 18 19 21 23 24 24 23 15 8 6 7 6 2 5 2 6 14 14 14 13 7 3 3 8 6 21 7 7 7 8 6 6 5 2 5 8 13 14 13 13 14 12 11
17 17 17 19 20 23 24 24 20 9 7 7 5 2 1 2 5 7 12 14 15 13 6 2 2 9 16 13 7 1 7 6 9 8 4 3 7 10 14 14 13 13 13 12 9
17 17 17 18 19 22 23 23 11 7 4 4 2 1 3 5 4 4 11 11 11 9 4 4 4 6 4 8 7 11 6 8 13 13 6 8 7 14 17 15 14 13 11 11 9
17 17 16 16 17 19 22 16 8 2 15 8 7 3 7 2 2 9 14 15 9 5 5 3 5 11 19 14 4 11 9 13 5 4 9 7 11 12 16 15 14 13 11 10 8
17 17 16 14 14 12 13 11 12 10 11 16 17 21 19 10 2 8 14 10 6 4 6 3 8 6 8 10 8 8 12 7 8 8 3 10 8 8 14 17 18 15 13 12 11
16 16 15 13 10 10 6 14 16 13 5 8 4 6 5 13 7 10 19 8 4 6 7 7 3 11 6 7 8 7 8 15 9 9 6 13 5 7 10 14 16 15 14 12 11
16 15 15 12 3 10 4 15 18 6 3 3 1 1 8 8 4 11 17 10 3 8 6 5 8 8 8 7 9 8 7 17 22 11 4 11 3 10 12 14 15 14 16 12 10
15 15 14 12 12 9 6 14 12 2 1 3 2 3 8 7 6 11 17 10 7 6 5 4 9 8 6 5 11 5 13 17 14 7 9 9 5 3 10 14 14 11 10 11 10
15 15 14 13 11 2 11 13 0 2 2 3 2 3 6 2 2 5 8 8 6 4 3 4 1 4 2 7 11 20 22 12 7 2 4 5 3 5 9 15 14 13 11 12 13
16 14 15 14 10 10 10 6 2 3 2 1 1 1 4 7 5 4 7 8 7 6 6 3 5 4 20 16 8 8 7 3 2 4 3 1 5 2 9 5 14 19 16 14 14
18 16 14 14 12 8 5 1 4 1 3 3 2 4 6 8 6 5 8 10 5 4 3 6 5 10 10 6 10 14 2 4 6 5 2 2 6 3 1 2 11 19 18 17 15
18 16 13 8 6 6 4 3 3 4 2 6 6 2 4 4 4 5 9 13 11 11 4 5 2 3 2 5 10 7 6 5 7 2 3 3 2 5 7 7 16 20 21 19 16
17 16 8 3 9 10 2 3 3 3 4 1 2 2 5 4 7 9 9 7 9 14 14 1 2 3 5 4 13 4 11 4 3 6 5 4 6 9 11 12 13 18 21 19 17
14 8 2 5 13 6 3 4 4 7 4 3 2 3 3 3 6 5 7 4 12 9 14 5 1 2 2 3 7 6 4 5 4 1 3 3 4 2 14 17 18 21 21 21 18
6 3 7 15 4 1 3 4 2 4 2 4 3 5 3 1 3 4 7 4 8 14 10 4 3 3 2 2 1 3 4 5 4 5 0 2 1 4 7 18 21 22 21 19 16
3 5 2 6 3 3 2 3 3 3 3 2 3 4 3 2 2 6 4 1 8 11 11 9 1 4 2 4 3 2 3 4 7 2 5 3 1 4 10 19 20 24 22 20 18
3 2 2 7 2 2 2 1 3 4 5 5 4 4 4 2 3 2 3 1 4 4 8 6 3 3 5 3 3 5 8 4 2 3 6 4 1 7 11 17 22 22 22 21 18
3 1 1 3 4 3 2 1 1 4 3 3 2 2 5 1 2 4 2 3 4 7 4 2 4 2 7 3 2 7 9 5 3 7 1 1 4 10 16 18 24 24 22 21 18
2 1 1 3 3 3 4 2 2 3 4 3 3 7 6 2 2 4 2 1 1 3 2 1 3 1 5 5 5 7 6 9 7 5 3 3 3 2 16 19 21 24 23 21 17
8 4 2 2 1 3 3 4 3 3 8 14 10 8 7 2 5 13 11 2 3 2 3 3 5 3 2 4 4 4 5 3 4 4 4 3 2 18 16 22 26 25 23 20 18
Wind_Direction
324 326 326 329 337 344 343 341 339 339 341 340 342 339 338 332 330 197 167 171 160 171 169 158 150 152 164 166 125 128 154 142 141 149 135 136 89 52 99 121 74 86 121 129 114
321 323 324 326 333 338 339 337 335 336 337 338 337 335 336 339 327 165 161 151 158 163 166 156 151 156 169 87 82 37 139 90 77 123 133 121 110 74 89 107 91 98 121 137 90
315 318 321 322 328 332 335 333 331 334 335 334 335 333 337 0 98 138 171 145 153 156 161 150 151 157 78 106 78 58 57 125 69 113 124 123 92 84 102 73 139 134 129 125 123
320 318 319 319 322 327 330 330 329 332 334 332 336 336 341 108 106 161 160 157 161 165 160 149 166 169 149 137 80 112 56 99 121 116 113 95 106 75 72 103 119 118 121 121 118
319 319 320 318 319 323 327 328 329 331 332 336 343 344 354 100 139 179 182 160 174 170 165 158 167 148 167 110 102 98 98 79 103 96 97 100 86 94 90 113 121 121 121 121 118
317 317 319 319 318 321 327 330 328 330 331 339 349 346 342 194 146 167 181 173 177 171 169 150 137 140 99 69 33 116 106 104 94 91 113 107 97 75 114 136 131 127 127 124 122
312 315 319 321 321 324 327 329 327 328 326 338 339 335 282 179 115 144 167 174 174 176 167 142 94 149 119 106 123 119 103 96 75 103 115 102 65 104 139 150 149 144 136 134 137
311 315 320 324 326 327 327 328 327 324 319 331 335 322 231 167 84 154 162 176 179 176 149 139 157 115 102 126 100 108 116 142 175 132 134 8 128 135 153 157 157 156 151 151 150
313 318 322 327 330 330 329 330 326 315 304 313 313 302 173 154 109 169 167 174 174 181 196 164 94 108 126 131 119 114 162 164 179 202 139 208 141 171 173 171 171 176 167 151 166
315 320 326 331 334 333 332 333 322 312 307 327 277 191 193 146 140 132 173 163 169 181 164 143 130 144 145 186 178 178 164 181 187 200 206 185 170 171 183 183 189 189 176 167 170
315 321 328 334 337 342 342 354 1 327 319 266 259 275 272 259 162 167 174 160 160 167 168 140 196 187 189 206 177 158 150 165 161 176 187 202 158 172 184 194 200 202 191 191 175
315 321 326 335 342 352 1 45 25 326 306 286 273 252 247 240 304 165 167 166 171 165 136 153 227 201 156 170 162 157 146 129 99 144 151 156 147 172 190 205 214 212 205 204 180
317 321 323 335 340 359 358 12 346 331 263 297 268 260 207 210 209 193 174 178 159 157 183 190 161 152 165 176 181 204 193 167 140 130 122 146 151 195 199 219 222 228 227 220 196
319 322 324 335 347 346 333 341 333 326 308 279 254 195 170 147 202 182 182 167 159 189 169 226 171 204 179 202 197 216 169 151 141 154 164 212 191 214 203 209 217 227 231 210 187
318 320 321 327 319 331 323 332 330 343 47 11 106 137 171 181 139 188 185 188 177 165 181 203 178 168 218 237 181 66 141 137 144 108 135 192 253 131 198 212 210 210 179 160 164
313 315 313 311 309 286 325 332 93 246 249 8 118 158 163 228 138 134 171 188 180 165 221 249 233 205 190 39 110 124 114 104 100 135 238 155 246 192 195 220 204 188 165 154 151
309 308 306 298 295 303 318 337 209 236 337 45 79 145 205 185 191 147 177 181 177 184 226 223 216 126 119 100 133 162 148 105 157 204 258 63 212 322 189 199 205 179 160 154 154
307 306 299 288 287 283 300 176 224 251 270 2 349 277 203 172 198 161 172 202 222 190 169 202 201 173 182 185 180 172 159 174 198 205 199 127 237 144 60 282 182 165 155 154 156
310 313 303 287 252 218 173 208 225 209 324 330 319 198 207 207 200 174 195 209 219 200 223 176 201 122 171 170 154 181 214 98 108 59 202 204 256 183 140 121 148 152 156 158 158
319 323 289 259 205 172 174 245 252 231 314 301 273 274 186 177 186 192 179 191 210 204 210 220 170 74 162 113 47 173 132 154 133 160 226 224 268 237 191 170 163 163 163 160 159
321 313 301 280 165 178 212 233 267 262 248 223 275 288 254 154 201 199 203 203 201 182 197 191 291 111 201 8 153 146 160 67 100 307 229 209 229 337 200 181 174 171 170 166 164
306 275 342 151 166 232 191 209 272 281 285 262 243 244 258 27 226 226 215 239 187 154 178 181 111 88 67 35 240 78 142 159 228 183 151 290 203 347 242 180 171 169 170 169 165
271 276 281 177 199 197 238 250 257 275 279 306 270 212 247 267 226 214 209 190 179 164 164 174 158 112 98 159 149 117 93 107 104 124 176 241 110 31 145 162 173 168 170 168 166
278 277 195 216 259 259 191 242 265 307 262 265 282 309 281 251 203 282 218 66 146 131 125 118 111 184 178 174 118 145 137 142 122 178 156 236 198 168 165 166 170 172 170 169 169
236 244 280 185 212 250 296 331 321 319 279 267 240 246 285 318 320 232 185 153 102 146 66 111 115 116 44 336 128 135 151 154 126 132 285 55 215 186 183 177 175 171 170 170 171
228 218 311 284 291 212 196 221 240 279 250 235 230 344 289 166 198 283 31 43 226 116 109 346 108 308 62 16 144 112 111 121 115 133 115 165 209 167 163 167 172 175 174 176 178
211 237 320 314 294 210 211 212 244 348 259 250 291 315 290 298 296 291 239 296 261 188 106 82 133 87 108 359 141 136 163 127 142 174 164 194 111 152 164 179 181 179 181 181 180